Location: Unspecified
(0.0000°N, 0.0000°E)
Time: 12:34:01
(UTC+01:00)

ARIANE DEB (SPELDA) - Visible Passes

Search period start: 25 March 2017 00:00
Search period end: 04 April 2017 01:00
Orbit: 320 x 32960 km, 3.3° (Epoch: 23 March)

Date Brightness Start Highest point End Pass type
(mag) Time Alt. Az. Time Alt. Az. Time Alt. Az.
25 Mar 7.4 01:37:31 10° W 03:26:41 67° W 10:36:01 10° E visible
25 Mar 5.8 20:36:15 10° W 20:44:24 84° S 06:30:37 10° E visible
27 Mar 7.1 02:56:30 10° W 04:45:10 61° W 11:53:10 10° E visible
27 Mar 6.1 21:53:20 10° W 22:02:50 86° S 06:49:56 10° E visible
29 Mar 6.8 03:15:46 10° W 05:03:17 55° W 12:10:10 10° E visible
29 Mar 6.5 22:10:21 10° W 22:21:28 87° S 07:08:43 10° E visible
31 Mar 6.6 03:35:25 10° W 05:21:05 49° W 12:27:01 10° E visible
31 Mar 6.8 22:27:18 10° W 22:40:24 88° S 07:27:04 10° E visible
02 Apr 6.3 03:55:36 10° W 05:38:32 43° W 12:43:43 10° E visible
02 Apr 7.1 22:44:11 10° W 22:59:45 90° S 07:45:01 10° E visible
